Voltar ao catálogo

STARLINK-3642

AtivoComunicaçõesVLEO
NORAD 51989·PAYLOAD·🇺🇸 United States

Lançado Mar 9, 2022 de Cape Canaveral Space Force Station

Loading…

Próximas Passagens (próximas 24 horas)

TLE

AtualizadoSource: CelesTrak SupGP

Época: Sep 15, 2026, 01:50 UTC

1 51989C 22025AK  26258.07687500 -.00015329  00000+0 -45260-3 0  2588
2 51989  53.1572 253.0063 0001364  79.8654 129.4227 15.34418581    17

Acompanhe STARLINK-3642 em tempo real com AllMySat

Download on the App Store